STARLINK-3807 (52353 NORAD) Tracking and Keplerian Element Data

This shows tracking and keplerian element data for the satellite.

Feedback or suggestion? Click here.




ElementValue
Catalog52353
NameSTARLINK-3807
Epoch Orbit130
Epoch Day167.08334491
Epoch Year2022
RAAN202.9766
Inclination53.2174
Eccentricity0.0001472
Argument of Perigee49.626
Mean Anonmoly104.2915
Mean Motion15.62262247
Decay Rate-0.00714848
L11 52353U 22045Y 22167.08334491 -.00714848 00000+0 -86796-2 0 9992
L22 52353 53.2174 202.9766 0001472 49.6260 104.2915 15.62262247 1308

Live tracking and technical data element details for STARLINK-3807 (NORAD 52353). STARLINK-3807 can be tracked NOW for your location showing map with azimuth and elevation plus other details from your city location.

Track the satellite on the map from your city or location and see movement details for azimuth, elevation, latitude, longitude, range, height, and movement on the map or in text.







IsCatalogInMostPopularTable: catalog: 52353, numindb: 6
Update: records affected: 1



GetName: 52353 STARLINK-3807

Hit Count: updated at: Mon, 27 Jun 2022 05:13:57 GMT